�������l�o���
Date,Time,MP-1(��Sv/h),MP-2(��Sv/h),MP-3(��Sv/h),MP-4(��Sv/h),MP-5(��Sv/h),MP-6(��Sv/h),MP-7(��Sv/h),MP-8(��Sv/h),����,����(m/s),���J
2024/04/06,00:00,0.499,0.762,0.481,0.937,0.675,0.311,0.551,0.513,��쐼,3.9,�L
2024/04/06,00:10,0.500,0.759,0.479,0.937,0.674,0.314,0.551,0.515,��쐼,4.0,�L
2024/04/06,00:20,0.502,0.761,0.482,0.936,0.674,0.313,0.550,0.514,�쐼,3.0,�L
2024/04/06,00:30,0.501,0.761,0.482,0.938,0.674,0.315,0.551,0.513,�쐼,2.6,�L
2024/04/06,00:40,0.502,0.759,0.481,0.937,0.674,0.315,0.550,0.514,��쐼,2.9,�L
2024/04/06,00:50,0.502,0.759,0.482,0.937,0.672,0.315,0.549,0.514,��쐼,3.1,�L
2024/04/06,01:00,0.501,0.759,0.480,0.936,0.673,0.315,0.551,0.514,��,3.7,�L
2024/04/06,01:10,0.499,0.759,0.481,0.936,0.672,0.315,0.549,0.513,��,3.7,�L
2024/04/06,01:20,0.499,0.758,0.480,0.934,0.669,0.313,0.549,0.515,��,5.6,�L
2024/04/06,01:30,0.497,0.757,0.479,0.934,0.669,0.314,0.547,0.513,��,6.5,��
2024/04/06,01:40,0.499,0.758,0.478,0.935,0.670,0.313,0.547,0.513,��,7.0,�L
2024/04/06,01:50,0.498,0.754,0.477,0.931,0.668,0.313,0.548,0.512,��쐼,7.1,�L
2024/04/06,02:00,0.497,0.756,0.478,0.932,0.668,0.311,0.549,0.513,��쐼,7.4,�L
2024/04/06,02:10,0.498,0.755,0.476,0.931,0.667,0.311,0.547,0.512,��,7.7,�L
2024/04/06,02:20,0.496,0.755,0.477,0.930,0.666,0.312,0.548,0.512,��,7.6,�L
2024/04/06,02:30,0.496,0.755,0.477,0.930,0.666,0.312,0.547,0.512,��,5.5,�L
2024/04/06,02:40,0.496,0.755,0.477,0.930,0.665,0.312,0.547,0.512,��쓌,5.1,�L
2024/04/06,02:50,0.498,0.755,0.477,0.930,0.666,0.310,0.547,0.512,��쓌,4.3,�L
2024/04/06,03:00,0.495,0.754,0.475,0.929,0.665,0.309,0.548,0.513,��쓌,4.4,��
2024/04/06,03:10,0.495,0.752,0.476,0.930,0.666,0.309,0.547,0.511,��쓌,3.9,��
2024/04/06,03:20,0.496,0.754,0.475,0.927,0.664,0.309,0.547,0.512,��,3.5,��
2024/04/06,03:30,0.496,0.755,0.475,0.927,0.663,0.309,0.547,0.512,��,3.4,��
2024/04/06,03:40,0.495,0.753,0.475,0.931,0.664,0.308,0.546,0.512,��,2.3,��
2024/04/06,03:50,0.495,0.752,0.475,0.930,0.665,0.309,0.548,0.511,��,2.2,��
2024/04/06,04:00,0.495,0.754,0.475,0.930,0.665,0.310,0.547,0.511,��,2.0,��
2024/04/06,04:10,0.495,0.753,0.474,0.927,0.665,0.308,0.546,0.511,�쐼,1.2,��
2024/04/06,04:20,0.495,0.753,0.475,0.929,0.663,0.308,0.544,0.511,�쐼,1.5,��
2024/04/06,04:30,0.495,0.753,0.473,0.928,0.664,0.310,0.545,0.511,�쐼,0.6,��
2024/04/06,04:40,0.495,0.753,0.473,0.928,0.664,0.309,0.547,0.511,���k��,0.6,��
2024/04/06,04:50,0.496,0.753,0.474,0.928,0.662,0.309,0.545,0.510,���k��,0.6,�L
2024/04/06,05:00,0.494,0.754,0.473,0.931,0.663,0.308,0.545,0.509,-,CALM,�L
2024/04/06,05:10,0.495,0.754,0.475,0.929,0.664,0.308,0.546,0.512,��,1.4,�L
2024/04/06,05:20,0.495,0.753,0.475,0.928,0.664,0.308,0.544,0.510,���쐼,0.8,�L
2024/04/06,05:30,0.496,0.752,0.475,0.929,0.665,0.309,0.546,0.511,��,0.6,�L
2024/04/06,05:40,0.495,0.753,0.475,0.929,0.664,0.309,0.544,0.510,��,0.8,��
2024/04/06,05:50,0.495,0.756,0.473,0.928,0.663,0.309,0.545,0.511,��,0.6,�L
2024/04/06,06:00,0.496,0.753,0.476,0.930,0.664,0.309,0.544,0.512,��,0.6,�L
2024/04/06,06:10,0.495,0.755,0.475,0.929,0.665,0.310,0.544,0.512,�쐼,0.9,�L
2024/04/06,06:20,0.497,0.753,0.474,0.927,0.665,0.309,0.545,0.512,���쐼,0.9,��
2024/04/06,06:30,0.495,0.754,0.474,0.929,0.665,0.310,0.545,0.512,���k��,1.2,�L
2024/04/06,06:40,0.496,0.753,0.475,0.929,0.665,0.308,0.544,0.512,��,0.9,�L
2024/04/06,06:50,0.496,0.754,0.476,0.930,0.666,0.309,0.545,0.512,��,1.2,�L
2024/04/06,07:00,0.495,0.754,0.475,0.929,0.664,0.308,0.546,0.512,���쐼,1.2,�L
2024/04/06,07:10,0.495,0.755,0.475,0.931,0.664,0.309,0.543,0.511,��쐼,1.2,�L
2024/04/06,07:20,0.497,0.752,0.475,0.929,0.665,0.309,0.543,0.512,��,1.2,��
2024/04/06,07:30,0.497,0.750,0.476,0.929,0.665,0.310,0.544,0.513,��,1.7,�L
2024/04/06,07:40,0.494,0.753,0.475,0.929,0.664,0.309,0.543,0.512,��쐼,1.9,�L
2024/04/06,07:50,0.496,0.753,0.475,0.930,0.663,0.311,0.544,0.511,��쐼,1.5,�L
2024/04/06,08:00,0.495,0.751,0.475,0.930,0.664,0.311,0.544,0.511,��쐼,2.0,�L
2024/04/06,08:10,0.495,0.750,0.475,0.930,0.665,0.309,0.544,0.512,��쐼,1.7,�L
2024/04/06,08:20,0.495,0.750,0.475,0.930,0.664,0.311,0.543,0.511,��쐼,1.7,�L
2024/04/06,08:30,0.494,0.749,0.475,0.929,0.663,0.311,0.543,0.511,��쐼,2.0,�L
2024/04/06,08:40,0.495,0.749,0.475,0.929,0.663,0.311,0.543,0.510,�쐼,1.7,�L
2024/04/06,08:50,0.494,0.749,0.473,0.929,0.663,0.310,0.543,0.511,�쐼,1.5,�L
2024/04/06,09:00,0.495,0.747,0.473,0.929,0.664,0.311,0.541,0.512,�쐼,1.2,�L
2024/04/06,09:10,0.492,0.748,0.474,0.930,0.664,0.310,0.542,0.510,�쐼,0.9,�L
2024/04/06,09:20,0.493,0.748,0.473,0.928,0.662,0.310,0.541,0.509,�쐼,0.9,�L
2024/04/06,09:30,0.494,0.747,0.472,0.929,0.662,0.309,0.541,0.510,�쐼,0.9,�L
2024/04/06,09:40,0.493,0.748,0.473,0.928,0.661,0.309,0.539,0.510,�쐼,0.9,�L
2024/04/06,09:50,0.493,0.744,0.473,0.929,0.661,0.309,0.541,0.511,-,CALM,�L
2024/04/06,10:00,0.492,0.742,0.471,0.925,0.658,0.310,0.540,0.510,-,CALM,�L
2024/04/06,10:10,0.492,0.742,0.472,0.926,0.659,0.310,0.541,0.510,-,CALM,�L
2024/04/06,10:20,0.491,0.742,0.472,0.926,0.659,0.308,0.541,0.510,�k,0.8,�L
2024/04/06,10:30,0.492,0.743,0.473,0.925,0.660,0.309,0.541,0.510,�쓌,0.9,�L
2024/04/06,10:40,0.491,0.743,0.473,0.924,0.659,0.309,0.540,0.510,���쓌,0.8,�L
2024/04/06,10:50,0.491,0.742,0.470,0.925,0.660,0.309,0.540,0.509,��쐼,0.6,�L
2024/04/06,11:00,0.490,0.742,0.472,0.925,0.659,0.308,0.538,0.509,��쓌,0.9,�L
2024/04/06,11:10,0.491,0.740,0.472,0.924,0.659,0.309,0.540,0.509,��,0.8,�L
2024/04/06,11:20,0.488,0.742,0.471,0.924,0.657,0.308,0.540,0.510,��쐼,0.6,�L
2024/04/06,11:30,0.489,0.742,0.471,0.923,0.657,0.307,0.538,0.509,���쐼,0.6,�L
2024/04/06,11:40,0.489,0.741,0.472,0.922,0.658,0.310,0.539,0.507,��,0.8,�L
2024/04/06,11:50,0.490,0.742,0.471,0.922,0.658,0.308,0.541,0.510,-,CALM,�L
2024/04/06,12:00,0.489,0.739,0.471,0.923,0.656,0.307,0.539,0.509,-,CALM,�L
2024/04/06,12:10,0.490,0.741,0.471,0.920,0.657,0.309,0.538,0.510,���쐼,0.8,�L
2024/04/06,12:20,0.488,0.738,0.470,0.922,0.657,0.309,0.540,0.508,�쐼,0.9,�L
2024/04/06,12:30,0.488,0.739,0.469,0.922,0.658,0.307,0.538,0.508,�k,0.6,�L
2024/04/06,12:40,0.489,0.740,0.468,0.922,0.656,0.308,0.539,0.509,�k,0.6,�L
2024/04/06,12:50,0.487,0.739,0.470,0.921,0.656,0.309,0.539,0.509,-,CALM,�L
2024/04/06,13:00,0.488,0.738,0.469,0.922,0.656,0.308,0.539,0.509,�k��,0.8,�L
2024/04/06,13:10,0.489,0.737,0.470,0.919,0.655,0.308,0.538,0.508,��,0.9,�L
2024/04/06,13:20,0.488,0.735,0.470,0.919,0.654,0.308,0.538,0.508,-,CALM,�L
2024/04/06,13:30,0.487,0.736,0.470,0.916,0.653,0.307,0.538,0.507,���k��,0.6,�L
2024/04/06,13:40,0.486,0.735,0.470,0.915,0.654,0.309,0.537,0.507,��,0.6,�L
2024/04/06,13:50,0.487,0.733,0.470,0.915,0.653,0.308,0.537,0.507,��,1.1,�L
2024/04/06,14:00,0.486,0.735,0.471,0.914,0.653,0.307,0.535,0.505,��,0.9,�L
2024/04/06,14:10,0.486,0.737,0.469,0.914,0.651,0.307,0.536,0.506,���k��,0.8,�L
2024/04/06,14:20,0.485,0.732,0.470,0.915,0.650,0.307,0.538,0.508,���k��,0.8,�L
2024/04/06,14:30,0.485,0.734,0.468,0.913,0.652,0.308,0.535,0.507,���k��,0.8,�L
2024/04/06,14:40,0.486,0.734,0.471,0.913,0.649,0.309,0.536,0.507,��,1.4,�L
2024/04/06,14:50,0.484,0.732,0.468,0.913,0.649,0.306,0.536,0.507,��쐼,3.2,�L
2024/04/06,15:00,0.485,0.733,0.470,0.911,0.650,0.309,0.536,0.508,��쐼,3.6,�L
2024/04/06,15:10,0.483,0.732,0.469,0.910,0.649,0.307,0.536,0.507,��쐼,3.2,�L
2024/04/06,15:20,0.485,0.733,0.467,0.910,0.650,0.309,0.537,0.507,��,3.3,�L
2024/04/06,15:30,0.485,0.734,0.466,0.911,0.650,0.307,0.536,0.506,��쓌,3.7,�L
2024/04/06,15:40,0.484,0.734,0.466,0.912,0.651,0.306,0.536,0.507,��,4.8,�L
2024/04/06,15:50,0.485,0.733,0.469,0.909,0.652,0.307,0.535,0.508,��쓌,4.7,�L
2024/04/06,16:00,0.483,0.734,0.469,0.910,0.651,0.307,0.536,0.507,��쓌,4.0,�L
2024/04/06,16:10,0.482,0.733,0.469,0.911,0.650,0.307,0.537,0.506,��쓌,4.1,�L
2024/04/06,16:20,0.483,0.732,0.467,0.910,0.652,0.307,0.536,0.508,��,3.9,�L
2024/04/06,16:30,0.483,0.733,0.467,0.913,0.653,0.306,0.536,0.507,��쓌,3.1,�L
2024/04/06,16:40,0.484,0.732,0.467,0.911,0.651,0.306,0.538,0.507,��쓌,2.9,�L
2024/04/06,16:50,0.483,0.733,0.467,0.911,0.650,0.307,0.536,0.508,��쓌,1.7,�L
2024/04/06,17:00,0.482,0.733,0.468,0.909,0.653,0.306,0.535,0.506,���쓌,0.6,�L
2024/04/06,17:10,0.484,0.732,0.467,0.911,0.650,0.306,0.537,0.507,��쓌,0.6,�L
2024/04/06,17:20,0.483,0.733,0.466,0.911,0.651,0.307,0.536,0.506,��,0.9,�L
2024/04/06,17:30,0.483,0.733,0.466,0.911,0.652,0.307,0.536,0.506,��쐼,0.6,�L
2024/04/06,17:40,0.484,0.734,0.467,0.911,0.651,0.307,0.537,0.506,-,CALM,�L
2024/04/06,17:50,0.483,0.734,0.465,0.911,0.651,0.306,0.536,0.507,-,CALM,�L
2024/04/06,18:00,0.483,0.732,0.465,0.911,0.650,0.307,0.536,0.505,���쐼,0.6,�L
2024/04/06,18:10,0.484,0.731,0.466,0.910,0.651,0.306,0.536,0.506,-,CALM,�L
2024/04/06,18:20,0.483,0.731,0.467,0.910,0.651,0.307,0.537,0.508,-,CALM,�L
2024/04/06,18:30,0.483,0.732,0.465,0.911,0.651,0.306,0.534,0.507,���k��,1.1,�L
2024/04/06,18:40,0.483,0.731,0.465,0.910,0.651,0.305,0.535,0.507,���k��,2.2,�L
2024/04/06,18:50,0.483,0.731,0.465,0.908,0.651,0.307,0.535,0.506,���k��,2.3,�L
2024/04/06,19:00,0.481,0.731,0.467,0.910,0.650,0.308,0.535,0.507,�k��,2.3,�L
2024/04/06,19:10,0.484,0.730,0.466,0.906,0.649,0.306,0.537,0.507,�k��,1.5,�L
2024/04/06,19:20,0.482,0.730,0.466,0.910,0.649,0.307,0.536,0.508,�k,1.2,�L
2024/04/06,19:30,0.480,0.730,0.468,0.907,0.650,0.305,0.536,0.507,�k�k��,2.2,�L
2024/04/06,19:40,0.480,0.729,0.467,0.907,0.651,0.306,0.537,0.507,�k��,2.5,�L
2024/04/06,19:50,0.481,0.730,0.467,0.907,0.652,0.306,0.534,0.507,�k�k��,3.2,�L
2024/04/06,20:00,0.481,0.730,0.466,0.906,0.649,0.306,0.534,0.506,�k�k��,2.6,�L
2024/04/06,20:10,0.482,0.729,0.465,0.906,0.648,0.306,0.536,0.508,�k�k��,3.4,�L
2024/04/06,20:20,0.482,0.730,0.466,0.906,0.650,0.306,0.535,0.506,�k��,3.9,�L
2024/04/06,20:30,0.481,0.730,0.466,0.907,0.648,0.305,0.537,0.507,�k��,3.4,�L
2024/04/06,20:40,0.482,0.729,0.466,0.906,0.649,0.306,0.535,0.506,�k��,4.4,�L
2024/04/06,20:50,0.481,0.730,0.464,0.907,0.651,0.307,0.534,0.505,�k��,4.7,�L
2024/04/06,21:00,0.481,0.730,0.464,0.905,0.651,0.306,0.536,0.507,�k��,3.8,�L
2024/04/06,21:10,0.481,0.731,0.467,0.906,0.649,0.306,0.535,0.505,�k��,4.1,�L
2024/04/06,21:20,0.481,0.731,0.466,0.905,0.651,0.306,0.535,0.505,�k�k��,4.5,�L
2024/04/06,21:30,0.481,0.730,0.465,0.908,0.649,0.306,0.536,0.508,�k��,5.5,�L
2024/04/06,21:40,0.483,0.731,0.464,0.905,0.651,0.306,0.536,0.505,�k��,5.2,�L
2024/04/06,21:50,0.482,0.730,0.464,0.907,0.648,0.306,0.536,0.507,�k�k��,4.7,�L
2024/04/06,22:00,0.480,0.731,0.466,0.908,0.650,0.305,0.535,0.506,�k�k��,5.3,�L
2024/04/06,22:10,0.481,0.731,0.465,0.907,0.650,0.307,0.538,0.506,�k��,5.8,��
2024/04/06,22:20,0.482,0.732,0.465,0.906,0.651,0.305,0.537,0.507,�k��,5.5,��
2024/04/06,22:30,0.481,0.730,0.465,0.906,0.651,0.306,0.536,0.507,�k��,4.6,��
2024/04/06,22:40,0.482,0.732,0.466,0.908,0.653,0.305,0.537,0.507,�k��,4.5,��
2024/04/06,22:50,0.481,0.732,0.467,0.907,0.652,0.307,0.537,0.508,�k��,4.3,��
2024/04/06,23:00,0.483,0.731,0.468,0.910,0.652,0.307,0.536,0.509,�k��,4.3,��
2024/04/06,23:10,0.483,0.731,0.466,0.908,0.651,0.307,0.537,0.508,�k��,4.6,��
2024/04/06,23:20,0.482,0.732,0.465,0.910,0.651,0.306,0.538,0.508,�k��,4.3,��
2024/04/06,23:30,0.482,0.731,0.467,0.908,0.652,0.306,0.536,0.508,�k��,4.2,��
2024/04/06,23:40,0.484,0.732,0.466,0.909,0.651,0.305,0.537,0.508,�k��,4.9,��
2024/04/06,23:50,0.484,0.733,0.467,0.908,0.652,0.306,0.539,0.507,�k��,4.0,��
